If you wish to contribute or participate in the discussions about articles you are invited to join SKYbrary as a registered user

 Actions

Alpnach Air Base

From SKYbrary Wiki

LSMA
Airport
ICAO: LSMA
Summary
Name Alpnach Air Base
Region Europe
Territory Switzerland CH.gif
Location Alpnach, Obwalden
Serving Alpnach
Elevation 445.008 m <br />1,460 ft <br />1,460 ft445.008 m <br />
Type medium airport
Coordinates 46° 56' 38.00" N, 8° 17' 3.01" E
Runways
Designator Length Width Surface ROPS
1/19 1500 m4,921.26 ft <br /> 40 m131.234 ft <br /> ASP /


METAR
Observation LSMA 152120Z AUTO 20005KT 9999NDV FEW086 07/06 Q1020 RMK
Station ALPNACH
Date/Time 15 October 2021 21:20:00
Wind direction 200°
Wind speed 05 kts
Lowest cloud amount few clouds
Temperature 7°C
Dew point 6°C
Humidity 93%
QNH 1020 hPa
Weather condition n/a

Military airbase outside Alpnach, Switzerland.

Climatology

Humid continental climate (Köppen climate classification Dfb)

Maps

Terrain

Loading map...

Airport Layout

Loading map...


Accidents & Serious Incidents at or in vicinity of LSMA

None on SKYbrary